TimePDT,TemperatureF,Dew PointF,Humidity,Sea Level PressureIn,VisibilityMPH,Wind Direction,Wind SpeedMPH,Gust SpeedMPH,PrecipitationIn,Events,Conditions,WindDirDegrees,DateUTC
12:54 AM,52.0,50.0,93,30.09,8.0,SW,4.6,-,N/A,,Overcast,220,2013-10-27 07:54:00
1:54 AM,52.0,51.1,97,30.10,7.0,Calm,Calm,-,N/A,,Overcast,0,2013-10-27 08:54:00
2:54 AM,51.1,50.0,96,30.09,7.0,West,3.5,-,N/A,,Overcast,260,2013-10-27 09:54:00
3:54 AM,51.1,50.0,96,30.06,7.0,SSE,3.5,-,N/A,,Overcast,160,2013-10-27 10:54:00
4:54 AM,50.0,48.9,96,30.05,9.0,Calm,Calm,-,N/A,,Overcast,0,2013-10-27 11:54:00
5:54 AM,50.0,46.9,89,30.04,6.0,Calm,Calm,-,N/A,,Mostly Cloudy,0,2013-10-27 12:54:00
6:14 AM,50.0,48.2,94,30.01,10.0,SSW,3.5,-,N/A,,Overcast,200,2013-10-27 13:14:00
6:54 AM,50.0,46.0,86,30.04,10.0,East,3.5,-,N/A,,Overcast,90,2013-10-27 13:54:00
7:30 AM,50.0,46.4,87,30.00,10.0,East,4.6,-,N/A,,Overcast,100,2013-10-27 14:30:00
7:54 AM,50.0,46.9,89,30.04,9.0,East,4.6,-,N/A,,Overcast,100,2013-10-27 14:54:00
8:02 AM,50.0,46.4,87,30.01,2.5,East,3.5,-,N/A,,Overcast,90,2013-10-27 15:02:00
8:25 AM,50.0,46.4,87,30.01,5.0,Calm,Calm,-,N/A,,Overcast,0,2013-10-27 15:25:00
8:54 AM,52.0,48.9,89,30.05,5.0,Calm,Calm,-,N/A,,Overcast,0,2013-10-27 15:54:00
9:54 AM,52.0,48.9,89,30.06,8.0,WSW,4.6,-,N/A,,Overcast,250,2013-10-27 16:54:00
10:54 AM,53.1,50.0,89,30.04,8.0,WSW,4.6,-,N/A,,Overcast,240,2013-10-27 17:54:00
11:08 AM,53.6,48.2,82,30.00,10.0,SSW,5.8,-,N/A,,Overcast,210,2013-10-27 18:08:00
11:54 AM,54.0,48.9,83,30.04,10.0,WSW,9.2,-,N/A,,Overcast,240,2013-10-27 18:54:00
12:54 PM,55.0,48.9,80,30.01,10.0,West,8.1,-,N/A,,Overcast,260,2013-10-27 19:54:00
1:22 PM,55.4,50.0,82,29.96,10.0,SW,9.2,-,N/A,,Overcast,220,2013-10-27 20:22:00
1:54 PM,55.9,50.0,80,29.98,10.0,SW,8.1,-,N/A,,Overcast,220,2013-10-27 20:54:00
2:54 PM,57.0,50.0,77,29.96,10.0,WSW,8.1,-,N/A,,Overcast,250,2013-10-27 21:54:00
3:54 PM,55.9,48.9,77,29.96,10.0,WSW,9.2,-,N/A,,Overcast,240,2013-10-27 22:54:00
4:04 PM,55.4,48.2,77,29.92,10.0,SW,8.1,-,N/A,,Overcast,220,2013-10-27 23:04:00
4:54 PM,55.9,48.0,75,29.94,10.0,WSW,11.5,-,N/A,,Overcast,240,2013-10-27 23:54:00
5:54 PM,55.9,46.9,72,29.92,10.0,SW,10.4,-,N/A,,Overcast,220,2013-10-28 00:54:00
6:54 PM,55.9,48.0,75,29.91,10.0,SW,10.4,-,N/A,,Overcast,220,2013-10-28 01:54:00
7:25 PM,57.2,48.2,72,29.87,10.0,SW,9.2,-,N/A,,Overcast,220,2013-10-28 02:25:00
7:54 PM,57.0,48.9,74,29.90,10.0,SW,9.2,-,N/A,,Overcast,220,2013-10-28 02:54:00
8:54 PM,57.0,48.9,74,29.90,10.0,SW,11.5,-,N/A,,Overcast,230,2013-10-28 03:54:00
9:16 PM,57.2,48.2,72,29.85,9.0,SW,10.4,-,N/A,,Overcast,220,2013-10-28 04:16:00
9:54 PM,55.0,51.1,86,29.88,5.0,WSW,17.3,25.3,0.00,Rain,Light Rain,240,2013-10-28 04:54:00
10:34 PM,55.4,51.8,88,29.82,7.0,SW,19.6,26.5,0.00,Rain,Light Rain,230,2013-10-28 05:34:00
10:43 PM,55.4,51.8,88,29.82,10.0,WSW,16.1,25.3,0.00,,Overcast,240,2013-10-28 05:43:00
10:54 PM,55.0,51.1,86,29.86,10.0,WSW,13.8,24.2,0.00,,Overcast,240,2013-10-28 05:54:00
11:03 PM,55.4,51.8,88,29.82,10.0,SW,13.8,-,N/A,,Overcast,230,2013-10-28 06:03:00
11:44 PM,55.4,50.0,82,29.82,10.0,WSW,13.8,19.6,N/A,,Mostly Cloudy,250,2013-10-28 06:44:00
11:54 PM,55.0,48.9,80,29.86,10.0,WSW,12.7,-,N/A,,Mostly Cloudy,250,2013-10-28 06:54:00